Weather History for Tampa, FL

Change the Weather History Date:

Wednesday, September 4, 2013

  Actual Average Record
Temperature  
Mean Temperature 84 °F 83 °F  
Max Temperature 92 °F 90 °F 96 °F (1961)
Min Temperature 75 °F 76 °F 68 °F (1906)
Degree Days  
Heating Degree Days 0 0  
Month to date heating degree days 0 0  
Since 1 July heating degree days 0 0  
Cooling Degree Days 19 18  
Month to date cooling degree days 75 72  
Year to date cooling degree days 2712 2587  
Growing Degree Days 33 (Base 50)    
Moisture  
Dew Point 74 °F    
Average Humidity 75    
Maximum Humidity 94    
Minimum Humidity 56    
Precipitation  
Precipitation 0.71 in 0.25 in 6.30 in (1935)
Month to date precipitation 0.81 1.02  
Year to date precipitation 43.33 34.74  
Sea Level Pressure  
Sea Level Pressure 30.04 in    
Wind  
Wind Speed 5 mph (SE)    
Max Wind Speed 26 mph    
Max Gust Speed 37 mph    
Visibility 9 miles    
Events Rain , Thunderstorm    
T = Trace of Precipitation, MM = Missing Value Source: NWS Daily Summary

Daily Weather History Graph

Daily Weather History Graph

Search for Another Location

Airport:

Trip Planner

Search our weather history database for the weather conditions in past years. The results will help you decide how hot, cold, wet, or windy it might be!

Date:

Astronomy

Sep. 04, 2013 Rise Set
Actual Time 7:10 AM EDT 7:47 PM EDT
Civil Twilight 6:46 AM EDT 8:11 PM EDT
Nautical Twilight 6:18 AM EDT 8:38 PM EDT
Astronomical Twilight 5:50 AM EDT 9:07 PM EDT
Moon 6:21 AM EDT (9/4) 7:09 PM EDT (9/4)
Length of Visible Light 13h 24m
Length of Day
12h 37m
Waning Crescent, 1% of the Moon is Illuminated
Sep 4
Waning Crescent
Sep 5
New
Sep 12
First Quarter
Sep 19
Full
Sep 26
Last Quarter

Hourly Weather History & Observations

Time (EDT) Temp. Heat Index Dew Point Humidity Pressure Visibility Wind Dir Wind Speed Gust Speed Precip Events Conditions
12:53 AM 82.9 °F 89.4 °F 73.9 °F 74% 30.02 in 10.0 mi Calm Calm - N/A   Scattered Clouds
1:53 AM 82.0 °F 87.9 °F 73.9 °F 76% 30.01 in 10.0 mi Calm Calm - N/A   Scattered Clouds
2:53 AM 82.0 °F 87.9 °F 73.9 °F 76% 30.00 in 10.0 mi Calm Calm - N/A   Scattered Clouds
3:53 AM 81.0 °F 86.2 °F 73.9 °F 79% 29.99 in 10.0 mi Calm Calm - N/A   Scattered Clouds
4:53 AM 80.1 °F 84.5 °F 73.9 °F 81% 29.99 in 10.0 mi ENE 3.5 mph - N/A   Scattered Clouds
5:53 AM 80.1 °F 84.5 °F 73.9 °F 81% 30.00 in 10.0 mi Calm Calm - N/A   Scattered Clouds
6:53 AM 80.1 °F 84.5 °F 73.9 °F 81% 30.02 in 10.0 mi Calm Calm - N/A   Mostly Cloudy
7:53 AM 81.0 °F 86.2 °F 73.9 °F 79% 30.04 in 10.0 mi Variable 3.5 mph - N/A   Mostly Cloudy
8:53 AM 82.0 °F 87.9 °F 73.9 °F 76% 30.06 in 10.0 mi ENE 4.6 mph - N/A   Overcast
9:53 AM 84.0 °F 91.9 °F 75.0 °F 74% 30.07 in 10.0 mi ENE 5.8 mph - N/A   Mostly Cloudy
10:53 AM 87.1 °F 95.4 °F 73.9 °F 65% 30.08 in 10.0 mi NNE 4.6 mph - N/A   Mostly Cloudy
11:53 AM 88.0 °F 95.6 °F 73.0 °F 61% 30.08 in 10.0 mi SSE 4.6 mph - N/A   Mostly Cloudy
12:53 PM 89.1 °F 97.0 °F 73.0 °F 59% 30.07 in 10.0 mi Variable 3.5 mph - N/A   Mostly Cloudy
1:53 PM 90.0 °F 96.9 °F 72.0 °F 55% 30.05 in 10.0 mi Variable 4.6 mph - N/A   Mostly Cloudy
2:53 PM 90.0 °F 100.2 °F 75.0 °F 61% 30.04 in 10.0 mi WSW 5.8 mph - N/A   Overcast
3:53 PM 91.0 °F 101.6 °F 75.0 °F 59% 30.02 in 10.0 mi SW 10.4 mph - N/A   Mostly Cloudy
4:53 PM 91.0 °F 100.4 °F 73.9 °F 57% 30.03 in 10.0 mi SW 8.1 mph - N/A   Mostly Cloudy
5:02 PM 91.4 °F 100.1 °F 73.4 °F 55% 30.03 in 10.0 mi SW 6.9 mph - N/A Thunderstorm Thunderstorm
5:24 PM 91.4 °F 100.1 °F 73.4 °F 55% 30.03 in 10.0 mi SW 9.2 mph - N/A   Mostly Cloudy
5:47 PM 78.8 °F - 71.6 °F 78% 30.03 in 1.8 mi South 25.3 mph 36.8 mph 0.01 in Rain , Thunderstorm Light Thunderstorms and Rain
5:53 PM 77.0 °F - 73.9 °F 90% 30.02 in 1.8 mi South 19.6 mph 32.2 mph 0.10 in Rain , Thunderstorm Light Thunderstorms and Rain
5:57 PM 77.0 °F - 73.4 °F 89% 30.03 in 2.0 mi South 15.0 mph 27.6 mph 0.17 in Rain , Thunderstorm Heavy Thunderstorms and Rain
6:01 PM 77.0 °F - 73.4 °F 89% 30.04 in 1.0 mi South 13.8 mph 23.0 mph 0.30 in Rain , Thunderstorm Heavy Thunderstorms and Rain
6:12 PM 78.8 °F - 71.6 °F 78% 30.05 in 7.0 mi SSW 12.7 mph - 0.48 in Rain , Thunderstorm Light Thunderstorms and Rain
6:53 PM 75.9 °F - 72.0 °F 87% 30.05 in 10.0 mi NNW 8.1 mph - 0.49 in Rain , Thunderstorm Light Thunderstorms and Rain
7:53 PM 75.9 °F - 73.0 °F 91% 30.08 in 9.0 mi NE 4.6 mph - 0.01 in Rain , Thunderstorm Light Thunderstorms and Rain
8:50 PM 75.2 °F - 73.4 °F 94% 30.11 in 8.0 mi NE 6.9 mph - 0.08 in Rain Light Rain
8:53 PM 75.0 °F - 73.0 °F 94% 30.11 in 8.0 mi NNE 5.8 mph - 0.09 in Rain Light Rain
9:53 PM 75.9 °F - 73.0 °F 91% 30.09 in 10.0 mi SE 4.6 mph - 0.02 in Rain Light Rain
10:53 PM 77.0 °F - 73.9 °F 90% 30.07 in 10.0 mi Calm Calm - 0.00 in   Overcast
11:53 PM 77.0 °F - 73.9 °F 90% 30.09 in 10.0 mi NNE 5.8 mph - N/A   Overcast